[[{"header":{"parameterUnit":"m.s-1","parameterCategory":1,"la1":30.2992,"la2":30.254,"lo1":-89.0895,"lo2":-89.0443,"dy":0.0025,"dx":0.0025,"nx":19,"ny":19,"refTime":"2026-04-14T21:00:00:Z","depth":0,"parameterNumber":2,"parameterNumberName":"U-component_of_WINDS"},"data":[0,0,0,-2.5921,-2.592,-2.5903,-2.5903,-2.5892,-2.5892,0,0,0,0,0,0,0,0,0,0,0,-2.5932,-2.5933,-2.5921,-2.592,-2.5903,-2.5903,-2.5892,-2.5892,0,0,0,0,0,0,0,0,0,0,0,-2.5932,-2.5933,-2.5933,-2.592,-2.5903,-2.5903,-2.5892,-2.5901,0,0,0,0,0,0,0,0,0,0,-2.5916,-2.5933,-2.5932,-2.5933,-2.592,-2.5903,-2.5903,-2.5901,-2.59,-2.5904,0,-2.591,0,-2.5901,-2.5892,-2.5892,0,0,0,-2.5915,-2.5934,-2.5923,-2.5933,-2.592,-2.5903,-2.5909,-2.59,-2.5899,-2.5903,-2.5909,-2.5909,-2.59,-2.5892,-2.5892,-2.5934,-2.5934,0,0,-2.5916,-2.5933,-2.5924,-2.5923,-2.5927,-2.591,-2.5909,-2.59,-2.5907,-2.5909,-2.5908,-2.59,-2.5892,-2.5892,-2.5933,-2.5934,0,0,0,-2.5922,-2.5934,-2.5923,-2.5924,-2.592,-2.591,-2.5908,-2.5908,-2.5903,-2.5908,-2.59,-2.5892,-2.5892,-2.5933,-2.5934,-2.5971,0,0,0,-2.5923,-2.5937,-2.5924,-2.5934,-2.592,-2.5914,-2.5917,-2.5904,-2.5902,-2.59,-2.5892,-2.5891,-2.5932,-2.5933,-2.5969,-2.5985,0,0,0,-2.5931,-2.5938,-2.5938,-2.5934,-2.5928,-2.5913,-2.5908,-2.5903,-2.5898,-2.5892,-2.5891,-2.5932,-2.5933,-2.5967,-2.5982,-2.6001,0,0,0,-2.5945,-2.5971,-2.5939,-2.5965,-2.5928,-2.5937,-2.5908,-2.5914,-2.5913,-2.5892,-2.5932,-2.5933,-2.5966,-2.598,-2.5999,-2.6019,-2.6029,0,0,-2.5987,-2.5977,-2.5991,-2.5962,-2.5981,-2.5939,-2.5964,-2.5947,-2.5931,-2.5934,-2.5935,-2.597,-2.5982,-2.6001,-2.6083,-2.6091,0,0,0,-2.601,-2.602,-2.6022,-2.6022,-2.6011,-2.6003,-2.5982,-2.5976,-2.5978,-2.5936,-2.5982,-2.5989,-2.5999,-2.6007,-2.6014,-2.6022,-2.5939,-2.5938,-2.5938,-2.6091,-2.6071,-2.6093,-2.6071,-2.6073,-2.6051,-2.605,-2.6039,-2.6017,-2.6028,-2.6028,-2.6081,-2.6092,-2.6097,-2.6105,-2.6038,-2.6038,-2.6039,-2.6039,-2.615,-2.6161,-2.6134,-2.6145,-2.6124,-2.6133,-2.6115,-2.6099,-2.6105,-2.6079,-2.6087,-2.6058,-2.6106,-2.6112,-2.6041,-2.6041,-2.6041,-2.604,-2.604,-2.62,-2.6202,-2.6195,-2.6196,-2.6198,-2.6176,-2.6183,-2.6163,-2.6145,-2.6153,-2.6151,-2.615,-2.6146,-2.6154,-2.6154,-2.6154,-2.6154,-2.6154,-2.6154,-2.6253,-2.6245,-2.6254,-2.6246,-2.6245,-2.6241,-2.6222,-2.622,-2.6213,-2.6198,-2.6198,-2.6175,-2.6116,-2.61,-2.6157,-2.6157,-2.6156,-2.6156,-2.6156,-2.6318,-2.6301,-2.6314,-2.6313,-2.6303,-2.6308,-2.6284,-2.6282,-2.6278,-2.6282,-2.6259,-2.6219,-2.6206,-2.62,-2.6188,-2.6264,-2.6264,-2.6264,-2.6264,-2.6359,-2.6352,-2.6362,-2.6362,-2.6359,-2.634,-2.6356,-2.6342,-2.6325,-2.6321,-2.6308,-2.629,-2.6285,-2.6275,-2.6268,-2.6256,-2.6347,-2.6347,-2.6347,-2.6398,-2.639,-2.6406,-2.639,-2.6382,-2.6375,-2.639,-2.6391,-2.6368,-2.635,-2.6318,-2.6314,-2.6285,-2.6277,-2.6256,-2.6245,-2.6222,0,0]},{"header":{"parameterUnit":"m.s-1","parameterCategory":1,"la1":30.2992,"la2":30.254,"lo1":-89.0895,"lo2":-89.0443,"dy":0.0025,"dx":0.0025,"nx":19,"ny":19,"refTime":"2026-04-14T21:00:00:Z","depth":0,"parameterNumber":3,"parameterNumberName":"V-component_of_WINDS"},"data":[0,0,0,4.5099,4.5098,4.507,4.507,4.5032,4.5032,0,0,0,0,0,0,0,0,0,0,0,4.5107,4.5107,4.5099,4.5098,4.507,4.507,4.5033,4.5032,0,0,0,0,0,0,0,0,0,0,0,4.5107,4.5107,4.5107,4.5098,4.507,4.507,4.5033,4.5054,0,0,0,0,0,0,0,0,0,0,4.5081,4.5089,4.5107,4.5107,4.5098,4.507,4.507,4.5055,4.5053,4.5045,0,4.5039,0,4.5035,4.503,4.503,0,0,0,4.5097,4.5091,4.5084,4.5106,4.5097,4.507,4.5083,4.5054,4.5051,4.5042,4.5039,4.5037,4.5035,4.5029,4.5029,4.4991,4.4991,0,0,4.5099,4.5101,4.5086,4.5082,4.5088,4.5083,4.5082,4.5052,4.5048,4.5038,4.5036,4.5034,4.5029,4.5029,4.4991,4.4991,0,0,0,4.5104,4.5103,4.5096,4.5084,4.5079,4.5083,4.5081,4.5049,4.5047,4.5036,4.5034,4.5029,4.5028,4.4991,4.4991,4.4988,0,0,0,4.5105,4.5105,4.5097,4.5098,4.508,4.5064,4.5079,4.5049,4.5046,4.5034,4.5029,4.5028,4.4991,4.4991,4.4988,4.4985,0,0,0,4.5109,4.5106,4.5102,4.5098,4.5087,4.5065,4.5061,4.5049,4.5044,4.503,4.5028,4.4992,4.4991,4.4988,4.4985,4.4976,0,0,0,4.5113,4.5098,4.5102,4.5084,4.5087,4.5063,4.5061,4.5043,4.5029,4.5029,4.4991,4.4991,4.4988,4.4986,4.4977,4.4969,4.4966,0,0,4.5095,4.5095,4.5085,4.5088,4.5065,4.5067,4.5043,4.5027,4.5022,4.5001,4.5,4.4988,4.4985,4.4976,4.495,4.4948,0,0,0,4.508,4.5072,4.5065,4.5054,4.5043,4.5034,4.5022,4.5016,4.4999,4.5013,4.4982,4.498,4.4975,4.4971,4.4969,4.4964,4.499,4.499,4.499,4.5056,4.5054,4.5036,4.503,4.5019,4.5008,4.4999,4.4989,4.4987,4.498,4.4973,4.4958,4.4954,4.4952,4.4947,4.4969,4.4969,4.4969,4.4969,4.503,4.5018,4.5019,4.5002,4.4998,4.4983,4.4973,4.4972,4.4957,4.4962,4.4957,4.4962,4.495,4.4945,4.4969,4.4969,4.4969,4.4969,4.4969,4.5014,4.5008,4.5003,4.4988,4.4977,4.4971,4.4957,4.4954,4.495,4.4946,4.4939,4.4939,4.4938,4.4943,4.4943,4.4943,4.4943,4.4943,4.4943,4.4999,4.4994,4.4984,4.4973,4.4967,4.4957,4.4948,4.4941,4.4932,4.493,4.493,4.4929,4.495,4.4955,4.4942,4.4942,4.4942,4.4942,4.4942,4.4972,4.4978,4.4963,4.4956,4.4944,4.4934,4.4931,4.4917,4.4911,4.4904,4.4905,4.4921,4.492,4.4922,4.4926,4.4906,4.4906,4.4906,4.4906,4.4958,4.4959,4.4943,4.4934,4.4924,4.492,4.4903,4.4896,4.4889,4.4885,4.4887,4.4893,4.4895,4.4893,4.4895,4.4899,4.4873,4.4873,4.4872,4.4942,4.4942,4.4927,4.4923,4.4914,4.4906,4.4889,4.4877,4.4871,4.4871,4.4882,4.4883,4.4892,4.4895,4.4894,4.4897,4.4904,0,0]}]]